Wetterdaten: Donnerstag, 22.01.2015
Datum Zeit Temp. A. Feuchte A. Luftdruck Regen Wind Richtung Richtung Sonnenschein ET UV Solar Taupunkt Windchill Windben Empfang
22.01.2015 00:00 1,3 C 78 % 1008,9 hPa 0,0 l/m 2,2 km/h (1 Bft) SO 125 0 min 0,000 mm 0,0 UV-I 0 W/m -2,1 C 1,3 C 4,0 km/h (1 Bft) 0,00 %
22.01.2015 00:15 1,3 C 79 % 1008,6 hPa 0,0 l/m 4,0 km/h (1 Bft) O 98 0 min 0,000 mm 0,0 UV-I 0 W/m -1,9 C 1,3 C 7,9 km/h (2 Bft) 0,00 %
22.01.2015 00:30 1,4 C 79 % 1008,4 hPa 0,0 l/m 5,8 km/h (2 Bft) SO 145 0 min 0,000 mm 0,0 UV-I 0 W/m -1,8 C 1,4 C 7,9 km/h (2 Bft) 0,00 %
22.01.2015 00:45 1,4 C 79 % 1008,4 hPa 0,0 l/m 5,4 km/h (1 Bft) O 87 0 min 0,000 mm 0,0 UV-I 0 W/m -1,8 C 1,4 C 7,9 km/h (2 Bft) 0,00 %
22.01.2015 01:00 1,3 C 79 % 1008,6 hPa 0,0 l/m 0,7 km/h (0 Bft) SO 128 0 min 0,000 mm 0,0 UV-I 0 W/m -1,9 C 1,3 C 4,0 km/h (1 Bft) 0,00 %
22.01.2015 01:15 1,4 C 79 % 1008,3 hPa 0,0 l/m 3,2 km/h (1 Bft) O 85 0 min 0,000 mm 0,0 UV-I 0 W/m -1,8 C 1,4 C 7,9 km/h (2 Bft) 0,00 %
22.01.2015 01:30 1,2 C 79 % 1008,6 hPa 0,0 l/m 0,7 km/h (0 Bft) SO 138 0 min 0,000 mm 0,0 UV-I 0 W/m -2,0 C 1,2 C 4,0 km/h (1 Bft) 0,00 %
22.01.2015 01:45 1,2 C 79 % 1008,5 hPa 0,0 l/m 4,7 km/h (1 Bft) O 87 0 min 0,000 mm 0,0 UV-I 0 W/m -2,0 C 1,2 C 7,9 km/h (2 Bft) 0,00 %
22.01.2015 02:00 1,2 C 79 % 1008,4 hPa 0,0 l/m 0,0 km/h (0 Bft) O-NO 78 0 min 0,000 mm 0,0 UV-I 0 W/m -2,0 C 1,2 C 0,0 km/h (0 Bft) 0,00 %
22.01.2015 02:15 1,1 C 79 % 1008,4 hPa 0,0 l/m 0,0 km/h (0 Bft) O 83 0 min 0,000 mm 0,0 UV-I 0 W/m -2,1 C 1,1 C 0,0 km/h (0 Bft) 0,00 %
22.01.2015 02:30 1,2 C 79 % 1008,5 hPa 0,0 l/m 5,4 km/h (1 Bft) O 83 0 min 0,000 mm 0,0 UV-I 0 W/m -2,0 C 1,2 C 11,9 km/h (2 Bft) 0,00 %
22.01.2015 02:45 1,1 C 79 % 1008,5 hPa 0,0 l/m 1,4 km/h (1 Bft) O-NO 64 0 min 0,000 mm 0,0 UV-I 0 W/m -2,1 C 1,1 C 4,0 km/h (1 Bft) 0,00 %
22.01.2015 03:00 1,1 C 79 % 1008,5 hPa 0,0 l/m 3,2 km/h (1 Bft) O-SO 111 0 min 0,000 mm 0,0 UV-I 0 W/m -2,1 C 1,1 C 4,0 km/h (1 Bft) 0,00 %
22.01.2015 03:15 1,1 C 79 % 1008,4 hPa 0,0 l/m 0,4 km/h (0 Bft) S 173 0 min 0,000 mm 0,0 UV-I 0 W/m -2,1 C 1,1 C 4,0 km/h (1 Bft) 0,00 %
22.01.2015 03:30 1,1 C 79 % 1008,5 hPa 0,0 l/m 2,9 km/h (1 Bft) O 94 0 min 0,000 mm 0,0 UV-I 0 W/m -2,1 C 1,1 C 7,9 km/h (2 Bft) 0,00 %
22.01.2015 03:45 1,1 C 80 % 1008,6 hPa 0,0 l/m 3,2 km/h (1 Bft) O 84 0 min 0,000 mm 0,0 UV-I 0 W/m -2,0 C 1,1 C 4,0 km/h (1 Bft) 0,00 %
22.01.2015 04:00 1,2 C 80 % 1008,4 hPa 0,0 l/m 8,3 km/h (2 Bft) O-NO 78 0 min 0,000 mm 0,0 UV-I 0 W/m -1,9 C -0,7 C 11,9 km/h (2 Bft) 0,00 %
22.01.2015 04:15 1,1 C 80 % 1008,2 hPa 0,0 l/m 4,0 km/h (1 Bft) O 81 0 min 0,000 mm 0,0 UV-I 0 W/m -2,0 C 1,1 C 4,0 km/h (1 Bft) 0,00 %
22.01.2015 04:30 1,1 C 80 % 1008,2 hPa 0,0 l/m 0,0 km/h (0 Bft) O-SO 111 0 min 0,000 mm 0,0 UV-I 0 W/m -2,0 C 1,1 C 0,0 km/h (0 Bft) 0,00 %
22.01.2015 04:45 1,0 C 80 % 1008,1 hPa 0,0 l/m 5,4 km/h (1 Bft) O-NO 77 0 min 0,000 mm 0,0 UV-I 0 W/m -2,1 C 1,0 C 7,9 km/h (2 Bft) 0,00 %
22.01.2015 05:00 1,0 C 80 % 1007,9 hPa 0,0 l/m 8,3 km/h (2 Bft) O-SO 114 0 min 0,000 mm 0,0 UV-I 0 W/m -2,1 C -0,9 C 11,9 km/h (2 Bft) 0,00 %
22.01.2015 05:15 1,0 C 80 % 1008,2 hPa 0,0 l/m 2,2 km/h (1 Bft) O 88 0 min 0,000 mm 0,0 UV-I 0 W/m -2,1 C 1,0 C 7,9 km/h (2 Bft) 0,00 %
22.01.2015 05:30 1,1 C 80 % 1008,2 hPa 0,0 l/m 5,4 km/h (1 Bft) O 100 0 min 0,000 mm 0,0 UV-I 0 W/m -2,0 C 1,1 C 7,9 km/h (2 Bft) 0,00 %
22.01.2015 05:45 1,1 C 80 % 1008,0 hPa 0,0 l/m 4,0 km/h (1 Bft) O-SO 110 0 min 0,000 mm 0,0 UV-I 0 W/m -2,0 C 1,1 C 4,0 km/h (1 Bft) 0,00 %
22.01.2015 06:00 1,1 C 80 % 1008,2 hPa 0,0 l/m 1,4 km/h (1 Bft) O-SO 110 0 min 0,000 mm 0,0 UV-I 0 W/m -2,0 C 1,1 C 4,0 km/h (1 Bft) 0,00 %
22.01.2015 06:15 1,1 C 80 % 1008,1 hPa 0,0 l/m 5,8 km/h (2 Bft) O-SO 120 0 min 0,000 mm 0,0 UV-I 0 W/m -2,0 C 1,1 C 7,9 km/h (2 Bft) 0,00 %
22.01.2015 06:30 1,1 C 80 % 1008,2 hPa 0,0 l/m 0,0 km/h (0 Bft) S-SW 192 0 min 0,000 mm 0,0 UV-I 0 W/m -2,0 C 1,1 C 0,0 km/h (0 Bft) 0,00 %
22.01.2015 06:45 1,1 C 80 % 1008,2 hPa 0,0 l/m 4,7 km/h (1 Bft) O-SO 103 0 min 0,000 mm 0,0 UV-I 0 W/m -2,0 C 1,1 C 7,9 km/h (2 Bft) 0,00 %
22.01.2015 07:00 1,1 C 81 % 1007,9 hPa 0,0 l/m 0,0 km/h (0 Bft) S-SO 153 0 min 0,000 mm 0,0 UV-I 0 W/m -1,8 C 1,1 C 0,0 km/h (0 Bft) 0,00 %
22.01.2015 07:15 1,1 C 81 % 1008,1 hPa 0,0 l/m 1,8 km/h (1 Bft) NO 34 0 min 0,000 mm 0,0 UV-I 0 W/m -1,8 C 1,1 C 4,0 km/h (1 Bft) 0,00 %
22.01.2015 07:30 1,1 C 81 % 1008,3 hPa 0,0 l/m 0,4 km/h (0 Bft) SW 218 0 min 0,000 mm 0,0 UV-I 0 W/m -1,8 C 1,1 C 4,0 km/h (1 Bft) 0,00 %
22.01.2015 07:45 1,1 C 81 % 1008,3 hPa 0,0 l/m 0,0 km/h (0 Bft) S 173 0 min 0,000 mm 0,0 UV-I 0 W/m -1,8 C 1,1 C 0,0 km/h (0 Bft) 0,00 %
22.01.2015 08:00 1,2 C 81 % 1008,5 hPa 0,0 l/m 2,9 km/h (1 Bft) O-SO 115 0 min 0,000 mm 0,0 UV-I 0 W/m -1,7 C 1,2 C 4,0 km/h (1 Bft) 0,00 %
22.01.2015 08:15 1,2 C 81 % 1008,5 hPa 0,0 l/m 0,4 km/h (0 Bft) S 172 0 min 0,000 mm 0,0 UV-I 3 W/m -1,7 C 1,2 C 4,0 km/h (1 Bft) 0,00 %
22.01.2015 08:30 1,4 C 81 % 1008,4 hPa 0,0 l/m 0,7 km/h (0 Bft) O 96 0 min 0,000 mm 0,0 UV-I 19 W/m -1,5 C 1,4 C 4,0 km/h (1 Bft) 0,00 %
22.01.2015 08:45 1,5 C 79 % 1008,7 hPa 0,0 l/m 7,2 km/h (2 Bft) O 91 0 min 0,000 mm 0,0 UV-I 31 W/m -1,7 C 0,7 C 11,9 km/h (2 Bft) 0,00 %
22.01.2015 09:00 1,7 C 79 % 1008,7 hPa 0,0 l/m 4,3 km/h (1 Bft) O-NO 59 0 min 0,000 mm 1,0 UV-I 35 W/m -1,5 C 1,7 C 7,9 km/h (2 Bft) 0,00 %
22.01.2015 09:15 1,8 C 79 % 1008,8 hPa 0,0 l/m 0,0 km/h (0 Bft) N-NW 332 0 min 0,000 mm 1,0 UV-I 43 W/m -1,4 C 1,8 C 0,0 km/h (0 Bft) 0,00 %
22.01.2015 09:30 1,9 C 79 % 1009,0 hPa 0,0 l/m 4,0 km/h (1 Bft) O-SO 102 0 min 0,000 mm 1,0 UV-I 44 W/m -1,3 C 1,9 C 4,0 km/h (1 Bft) 0,00 %
22.01.2015 09:45 2,0 C 78 % 1009,0 hPa 0,0 l/m 7,9 km/h (2 Bft) O 86 0 min 0,000 mm 1,0 UV-I 47 W/m -1,4 C 0,5 C 7,9 km/h (2 Bft) 0,00 %
22.01.2015 10:00 2,2 C 78 % 1008,9 hPa 0,0 l/m 0,7 km/h (0 Bft) S-SO 151 0 min 0,000 mm 1,0 UV-I 66 W/m -1,2 C 2,2 C 4,0 km/h (1 Bft) 0,00 %
22.01.2015 10:15 2,3 C 78 % 1009,0 hPa 0,0 l/m 5,4 km/h (1 Bft) S 174 0 min 0,000 mm 1,0 UV-I 79 W/m -1,1 C 2,3 C 7,9 km/h (2 Bft) 0,00 %
22.01.2015 10:30 2,6 C 82 % 1009,2 hPa 0,0 l/m 0,4 km/h (0 Bft) S 174 0 min 0,000 mm 1,0 UV-I 90 W/m -0,2 C 2,6 C 4,0 km/h (1 Bft) 0,00 %
22.01.2015 10:45 2,9 C 81 % 1009,1 hPa 0,0 l/m 0,0 km/h (0 Bft) S 177 0 min 0,000 mm 1,0 UV-I 84 W/m -0,0 C 2,9 C 0,0 km/h (0 Bft) 0,00 %
22.01.2015 11:00 3,0 C 81 % 1009,0 hPa 0,0 l/m 0,4 km/h (0 Bft) S-SO 150 0 min 0,000 mm 1,0 UV-I 94 W/m 0,1 C 3,0 C 4,0 km/h (1 Bft) 0,00 %
22.01.2015 11:15 3,4 C 79 % 1008,8 hPa 0,0 l/m 4,0 km/h (1 Bft) O-SO 122 0 min 0,000 mm 1,0 UV-I 106 W/m 0,1 C 3,4 C 7,9 km/h (2 Bft) 0,00 %
22.01.2015 11:30 3,3 C 79 % 1009,1 hPa 0,0 l/m 2,2 km/h (1 Bft) SO 140 0 min 0,000 mm 1,0 UV-I 100 W/m 0,0 C 3,3 C 4,0 km/h (1 Bft) 0,00 %
22.01.2015 11:45 3,4 C 79 % 1008,9 hPa 0,0 l/m 5,8 km/h (2 Bft) SO 134 0 min 0,000 mm 1,0 UV-I 101 W/m 0,1 C 3,4 C 7,9 km/h (2 Bft) 0,00 %
22.01.2015 12:00 3,4 C 78 % 1009,0 hPa 0,0 l/m 0,4 km/h (0 Bft) S 172 0 min 0,000 mm 1,0 UV-I 68 W/m -0,1 C 3,4 C 4,0 km/h (1 Bft) 0,00 %
22.01.2015 12:15 3,5 C 78 % 1008,8 hPa 0,0 l/m 0,0 km/h (0 Bft) S-SW 213 0 min 0,000 mm 1,0 UV-I 58 W/m 0,0 C 3,5 C 0,0 km/h (0 Bft) 0,00 %
22.01.2015 12:30 3,9 C 77 % 1008,4 hPa 0,0 l/m 0,0 km/h (0 Bft) S-SW 201 0 min 0,000 mm 1,0 UV-I 78 W/m 0,2 C 3,9 C 0,0 km/h (0 Bft) 0,00 %
22.01.2015 12:45 4,1 C 76 % 1008,6 hPa 0,0 l/m 0,0 km/h (0 Bft) SW 227 0 min 0,000 mm 1,0 UV-I 75 W/m 0,3 C 4,1 C 0,0 km/h (0 Bft) 0,00 %
22.01.2015 13:00 4,5 C 75 % 1008,9 hPa 0,0 l/m 0,0 km/h (0 Bft) SW 218 0 min 0,000 mm 1,0 UV-I 89 W/m 0,5 C 4,5 C 0,0 km/h (0 Bft) 0,00 %
22.01.2015 13:15 4,6 C 74 % 1008,5 hPa 0,0 l/m 0,0 km/h (0 Bft) SW 217 0 min 0,000 mm 1,0 UV-I 96 W/m 0,4 C 4,6 C 0,0 km/h (0 Bft) 0,00 %
22.01.2015 13:30 4,7 C 74 % 1008,7 hPa 0,0 l/m 0,0 km/h (0 Bft) S-SW 193 0 min 0,000 mm 1,0 UV-I 97 W/m 0,5 C 4,7 C 0,0 km/h (0 Bft) 0,00 %
22.01.2015 13:45 4,9 C 74 % 1008,4 hPa 0,0 l/m 0,0 km/h (0 Bft) S-SW 206 0 min 0,000 mm 1,0 UV-I 133 W/m 0,7 C 4,9 C 0,0 km/h (0 Bft) 0,00 %
22.01.2015 14:00 4,8 C 74 % 1008,6 hPa 0,0 l/m 0,0 km/h (0 Bft) S-SW 208 0 min 0,000 mm 1,0 UV-I 116 W/m 0,6 C 4,8 C 0,0 km/h (0 Bft) 0,00 %
22.01.2015 14:15 4,8 C 74 % 1008,6 hPa 0,0 l/m 0,0 km/h (0 Bft) SW 220 0 min 0,000 mm 1,0 UV-I 113 W/m 0,6 C 4,8 C 0,0 km/h (0 Bft) 0,00 %
22.01.2015 14:30 4,9 C 74 % 1008,8 hPa 0,0 l/m 0,0 km/h (0 Bft) SW 232 0 min 0,000 mm 1,0 UV-I 112 W/m 0,7 C 4,9 C 0,0 km/h (0 Bft) 0,00 %
22.01.2015 14:45 4,6 C 75 % 1008,8 hPa 0,0 l/m 0,0 km/h (0 Bft) W-SW 253 0 min 0,000 mm 1,0 UV-I 77 W/m 0,6 C 4,6 C 0,0 km/h (0 Bft) 0,00 %
22.01.2015 15:00 4,4 C 76 % 1009,0 hPa 0,0 l/m 1,4 km/h (1 Bft) W-SW 251 0 min 0,000 mm 0,0 UV-I 58 W/m 0,5 C 4,4 C 4,0 km/h (1 Bft) 0,00 %
22.01.2015 15:15 3,9 C 77 % 1009,4 hPa 0,0 l/m 0,0 km/h (0 Bft) SW 232 0 min 0,000 mm 0,0 UV-I 37 W/m 0,2 C 3,9 C 0,0 km/h (0 Bft) 0,00 %
22.01.2015 15:30 3,5 C 78 % 1009,4 hPa 0,0 l/m 0,0 km/h (0 Bft) S-SW 212 0 min 0,000 mm 0,0 UV-I 31 W/m 0,0 C 3,5 C 0,0 km/h (0 Bft) 0,00 %
22.01.2015 15:45 3,3 C 80 % 1009,8 hPa 0,0 l/m 0,0 km/h (0 Bft) S-SW 212 0 min 0,000 mm 0,0 UV-I 9 W/m 0,2 C 3,3 C 0,0 km/h (0 Bft) 0,00 %
22.01.2015 16:00 3,1 C 80 % 1009,8 hPa 0,0 l/m 0,4 km/h (0 Bft) W-SW 252 0 min 0,000 mm 0,0 UV-I 8 W/m -0,0 C 3,1 C 4,0 km/h (1 Bft) 0,00 %
22.01.2015 16:15 2,8 C 81 % 1010,4 hPa 0,0 l/m 0,0 km/h (0 Bft) S-SW 213 0 min 0,000 mm 0,0 UV-I 1 W/m -0,1 C 2,8 C 0,0 km/h (0 Bft) 0,00 %
22.01.2015 16:30 2,7 C 81 % 1010,3 hPa 0,0 l/m 0,0 km/h (0 Bft) S-SW 202 0 min 0,000 mm 0,0 UV-I 0 W/m -0,2 C 2,7 C 0,0 km/h (0 Bft) 0,00 %
22.01.2015 16:45 2,5 C 82 % 1010,7 hPa 0,0 l/m 0,0 km/h (0 Bft) SW 218 0 min 0,000 mm 0,0 UV-I 0 W/m -0,3 C 2,5 C 0,0 km/h (0 Bft) 0,00 %
22.01.2015 17:00 2,4 C 78 % 1011,0 hPa 0,0 l/m 0,0 km/h (0 Bft) W-SW 255 0 min 0,000 mm 0,0 UV-I 0 W/m -1,0 C 2,4 C 0,0 km/h (0 Bft) 0,00 %
22.01.2015 17:15 2,3 C 78 % 1011,1 hPa 0,0 l/m 1,4 km/h (1 Bft) W-SW 251 0 min 0,000 mm 0,0 UV-I 0 W/m -1,1 C 2,3 C 4,0 km/h (1 Bft) 0,00 %
22.01.2015 17:30 2,3 C 78 % 1011,2 hPa 0,0 l/m 0,0 km/h (0 Bft) W-SW 247 0 min 0,000 mm 0,0 UV-I 0 W/m -1,1 C 2,3 C 0,0 km/h (0 Bft) 0,00 %
22.01.2015 17:45 2,2 C 79 % 1011,6 hPa 0,0 l/m 0,7 km/h (0 Bft) W-SW 255 0 min 0,000 mm 0,0 UV-I 0 W/m -1,1 C 2,2 C 4,0 km/h (1 Bft) 0,00 %
22.01.2015 18:00 2,1 C 78 % 1011,8 hPa 0,0 l/m 0,0 km/h (0 Bft) SW 221 0 min 0,000 mm 0,0 UV-I 0 W/m -1,3 C 2,1 C 0,0 km/h (0 Bft) 0,00 %
22.01.2015 18:15 2,2 C 78 % 1012,0 hPa 0,0 l/m 0,7 km/h (0 Bft) W-SW 250 0 min 0,000 mm 0,0 UV-I 0 W/m -1,2 C 2,2 C 4,0 km/h (1 Bft) 0,00 %
22.01.2015 18:30 2,1 C 78 % 1012,0 hPa 0,0 l/m 0,4 km/h (0 Bft) W-SW 250 0 min 0,000 mm 0,0 UV-I 0 W/m -1,3 C 2,1 C 4,0 km/h (1 Bft) 0,00 %
22.01.2015 18:45 2,1 C 78 % 1012,3 hPa 0,0 l/m 0,4 km/h (0 Bft) W-SW 251 0 min 0,000 mm 0,0 UV-I 0 W/m -1,3 C 2,1 C 4,0 km/h (1 Bft) 0,00 %
22.01.2015 19:00 2,2 C 79 % 1012,4 hPa 0,0 l/m 0,0 km/h (0 Bft) SW 236 0 min 0,000 mm 0,0 UV-I 0 W/m -1,1 C 2,2 C 0,0 km/h (0 Bft) 0,00 %
22.01.2015 19:15 2,2 C 79 % 1012,5 hPa 0,0 l/m 0,0 km/h (0 Bft) SW 221 0 min 0,000 mm 0,0 UV-I 0 W/m -1,1 C 2,2 C 0,0 km/h (0 Bft) 0,00 %
22.01.2015 19:30 2,1 C 79 % 1012,4 hPa 0,0 l/m 0,7 km/h (0 Bft) S-SW 209 0 min 0,000 mm 0,0 UV-I 0 W/m -1,2 C 2,1 C 4,0 km/h (1 Bft) 0,00 %
22.01.2015 19:45 2,1 C 79 % 1012,7 hPa 0,0 l/m 0,0 km/h (0 Bft) SO 136 0 min 0,000 mm 0,0 UV-I 0 W/m -1,2 C 2,1 C 0,0 km/h (0 Bft) 0,00 %
22.01.2015 20:00 2,1 C 79 % 1012,8 hPa 0,0 l/m 0,0 km/h (0 Bft) W-SW 238 0 min 0,000 mm 0,0 UV-I 0 W/m -1,2 C 2,1 C 0,0 km/h (0 Bft) 0,00 %
22.01.2015 20:15 2,0 C 78 % 1013,3 hPa 0,0 l/m 3,2 km/h (1 Bft) W-SW 253 0 min 0,000 mm 0,0 UV-I 0 W/m -1,4 C 2,0 C 7,9 km/h (2 Bft) 0,00 %
22.01.2015 20:30 1,9 C 78 % 1013,3 hPa 0,0 l/m 0,7 km/h (0 Bft) W-SW 252 0 min 0,000 mm 0,0 UV-I 0 W/m -1,5 C 1,9 C 4,0 km/h (1 Bft) 0,00 %
22.01.2015 20:45 1,8 C 78 % 1013,1 hPa 0,0 l/m 1,4 km/h (1 Bft) SW 225 0 min 0,000 mm 0,0 UV-I 0 W/m -1,6 C 1,8 C 4,0 km/h (1 Bft) 0,00 %
22.01.2015 21:00 1,7 C 78 % 1013,3 hPa 0,0 l/m 0,4 km/h (0 Bft) W-SW 256 0 min 0,000 mm 0,0 UV-I 0 W/m -1,7 C 1,7 C 4,0 km/h (1 Bft) 0,00 %
22.01.2015 21:15 1,6 C 78 % 1013,3 hPa 0,0 l/m 0,0 km/h (0 Bft) SW 228 0 min 0,000 mm 0,0 UV-I 0 W/m -1,8 C 1,6 C 0,0 km/h (0 Bft) 0,00 %
22.01.2015 21:30 1,5 C 78 % 1013,7 hPa 0,0 l/m 4,3 km/h (1 Bft) W-SW 251 0 min 0,000 mm 0,0 UV-I 0 W/m -1,9 C 1,5 C 7,9 km/h (2 Bft) 0,00 %
22.01.2015 21:45 1,5 C 78 % 1013,7 hPa 0,0 l/m 0,7 km/h (0 Bft) W-SW 255 0 min 0,000 mm 0,0 UV-I 0 W/m -1,9 C 1,5 C 4,0 km/h (1 Bft) 0,00 %
22.01.2015 22:00 1,4 C 78 % 1013,7 hPa 0,0 l/m 0,7 km/h (0 Bft) W-SW 256 0 min 0,000 mm 0,0 UV-I 0 W/m -2,0 C 1,4 C 4,0 km/h (1 Bft) 0,00 %
22.01.2015 22:15 1,4 C 79 % 1014,0 hPa 0,0 l/m 0,4 km/h (0 Bft) SW 227 0 min 0,000 mm 0,0 UV-I 0 W/m -1,8 C 1,4 C 4,0 km/h (1 Bft) 0,00 %
22.01.2015 22:30 1,4 C 80 % 1014,2 hPa 0,0 l/m 0,4 km/h (0 Bft) S-SW 205 0 min 0,000 mm 0,0 UV-I 0 W/m -1,7 C 1,4 C 4,0 km/h (1 Bft) 0,00 %
22.01.2015 22:45 1,3 C 80 % 1014,2 hPa 0,0 l/m 0,0 km/h (0 Bft) S 191 0 min 0,000 mm 0,0 UV-I 0 W/m -1,8 C 1,3 C 0,0 km/h (0 Bft) 0,00 %
22.01.2015 23:00 1,2 C 80 % 1014,5 hPa 0,0 l/m 2,9 km/h (1 Bft) W-SW 252 0 min 0,000 mm 0,0 UV-I 0 W/m -1,9 C 1,2 C 4,0 km/h (1 Bft) 0,00 %
22.01.2015 23:15 1,1 C 80 % 1014,7 hPa 0,0 l/m 1,8 km/h (1 Bft) SW 229 0 min 0,000 mm 0,0 UV-I 0 W/m -2,0 C 1,1 C 4,0 km/h (1 Bft) 0,00 %
22.01.2015 23:30 1,0 C 80 % 1014,8 hPa 0,0 l/m 4,3 km/h (1 Bft) W-SW 252 0 min 0,000 mm 0,0 UV-I 0 W/m -2,1 C 1,0 C 7,9 km/h (2 Bft) 0,00 %
22.01.2015 23:45 1,0 C 80 % 1014,7 hPa 0,0 l/m 2,2 km/h (1 Bft) SW 230 0 min 0,000 mm 0,0 UV-I 0 W/m -2,1 C 1,0 C 4,0 km/h (1 Bft) 0,00 %
_ Min-Zeit 04:45 13:15 05:00 - 02:00 - - - - - - 02:15 05:00 02:00 00:00
Minimum _ 1,0 C 74 % 1007,9 hPa - 0,0 km/h (0 Bft) - - - - - - -2,1 C -0,9 C 0,0 km/h (0 Bft) 0,00 %
_ Max-Zeit 13:45 10:30 23:30 00:00 04:00 - - 00:00 00:00 09:00 13:45 13:45 13:45 02:30 00:00
Maximum _ 4,9 C 82 % 1014,8 hPa 0,0 l/m 8,3 km/h
O-NO (2 Bft)
- - 0 min 0,000 mm 1,0 UV-I 133 W/m 0,7 C 4,9 C 11,9 km/h
O (2 Bft)
0,00 %
Durchschnitt _ 2,1 C 79 % 1010,0 hPa #0,0 l/m 1,8 km/h (1 Bft) O - #0 min. #0,000 mm 1,0 UV-I 67 W/m -1,2 C 2,0 C 3,7 km/h (1 Bft) 0,00 %